Regional Weather Roundup
Issued by NWS

Home | Current Version | Previous Version | Text Only | Print | Product List | Glossary Off
Versions: 1 2 3 4 5 6 7 8 9 10 11 12 13 14 15 16 17 18 19 20 21 22 23 24 25 26 27 28 29 30 31 32 33 34 35 36 37 38 39 40 41 42 43 44 45 46 47 48 49 50

000
ASUS45 KTFX 290119
RWRMT
MONTANA HOURLY WEATHER ROUNDUP
NATIONAL WEATHER SERVICE GREAT FALLS MT
719 PM MDT MON JUL 28 2014

NOTE: "FAIR" INDICATES FEW OR NO CLOUDS BELOW 12000 FEET WITH NO
SIGNIFICANT WEATHER AND/OR OBSTRUCTIONS TO VISIBILITY.

* THESE STATIONS ARE NOT UNDER NWS QUALITY CONTROL. THEY DO NOT
   REPORT WEATHER SUCH AS PRECIPITATION OR FOG.

MTZ001>007-043-290200-
WEST OF THE DIVIDE
CITY           SKY/WX    TMP DP  RH WIND       PRES   REMARKS
KALISPELL      PTCLDY    91  39  16 CALM      30.10F
MISSOULA       PTCLDY    90  37  15 N17G23    30.08F
BUTTE          CLOUDY    82  39  22 SW7       30.26S
MULLAN PASS    PTCLDY    79  37  22 CALM      30.32S
* LINCOLN      N/A       84  41  22 E5G12      N/A
* LOOKOUT PASS N/A       83  39  21 SW3        N/A
* POLSON       N/A       87  46  24 NW3        N/A
* RONAN APT    PTCLDY    88  48  25 N6         N/A
* SEELEY LAKE  N/A       92  39  16 W5G11      N/A
* THOMP F APT  PTCLDY    75  37  25 N7G16      N/A
* YAAK HILL    N/A      100  42  14 NW1        N/A
$$

MTZ008-052>055-290200-
SOUTHWEST MONTANA
CITY           SKY/WX    TMP DP  RH WIND       PRES   REMARKS
BOZEMAN        CLOUDY    82  48  31 SE8       30.19F
DILLON         CLOUDY    82  37  20 S16       30.24F
W YELLOWSTONE  CLOUDY    72  39  30 N6        30.36F
* THREE FORKS  CLOUDY    84  57  40 N/A        N/A   HI  83
* BOULDER HILL N/A       82  41  23 SW6        N/A
* MONIDA PASS  N/A       73  36  26 NW9G14     N/A
* RAYNOLDS PAS N/A       70  19  14 NE9        N/A
* WHITEHALL    N/A       85  51  31 NE1G6      N/A
* WISE RIVER   N/A       81  41  24 SW9G20     N/A
$$

MTZ009>010-012-014-046-048-049-054-290200-
EAST SLOPES AND CENTRAL MONTANA
CITY           SKY/WX    TMP DP  RH WIND       PRES   REMARKS
CUT BANK       PTCLDY    88  41  19 E5        30.17S
GREAT FALLS    CLOUDY    88  43  21 N5        30.12F
HELENA         CLOUDY    90  36  15 SE7       30.11F
MALMSTROM AFB  CLOUDY    88  39  18 NE9       30.12F
* CONRAD       MOCLDY    82  52  35 N/A        N/A
* DEARBORN     N/A       89  43  20 VRB8G16    N/A
* EAST GLACIER N/A       79  45  30 SE6        N/A
* ROGERS PASS  N/A       77  54  45 W1         N/A
* SAINT MARY   N/A       82  45  27 N5G10      N/A
* SWEET GRASS  N/A       89  39  17 E9G16      N/A
* WHITE SULPH  N/A       84  44  25 NE6G11     N/A
$$

MTZ011-013-016-021-035-040-045-047-050-051-290200-
NORTH CENTRAL MONTANA
CITY           SKY/WX    TMP DP  RH WIND       PRES   REMARKS
HAVRE          PTCLDY    88  43  21 E17       30.11F
LEWISTOWN      CLOUDY    86  43  22 E14       30.20S
* FORT BENTON  CLOUDY    91  43  19 E10       30.09S
* CHESTER      N/A       90  38  16 E7G13      N/A
* DENTON       N/A       88  44  22 E14G19     N/A
* JUDITH GAP   N/A       83  43  24 S9         N/A
* LOMA         N/A       92  41  17 NE11G18    N/A
$$

MTZ017>020-022>027-061-062-290200-
NORTHEAST MONTANA
CITY           SKY/WX    TMP DP  RH WIND       PRES   REMARKS
GLASGOW        FAIR      88  45  22 SE8       30.17S
GLENDIVE       PTCLDY    81  48  32 E8        30.21S
JORDAN         PTCLDY    88  43  21 E16       30.17S
SIDNEY         PTCLDY    81  52  37 NE9       30.21S
WOLF POINT     PTCLDY    86  45  24 E10       30.18S
* BEAVER HILL  N/A       79  50  36 E8         N/A
* CIRCLE       N/A       84  53  34 E5         N/A
* LINDSAY DVD  N/A       79  48  34 N5         N/A
$$

MTZ028>042-056>058-290200-
SOUTHCENTRAL AND SOUTHEAST MONTANA
CITY           SKY/WX    TMP DP  RH WIND       PRES   REMARKS
BAKER          PTCLDY    81  52  37 E14       30.23S
BILLINGS       CLOUDY    88  48  25 NE14      30.16F
LIVINGSTON     CLOUDY    84  41  22 E8        30.22S
MILES CITY     PTCLDY    84  45  26 NE15      30.17F
* LAUREL APT   CLOUDY    86  46  25 N8         N/A
* ROUNDUP APT  CLOUDY    88  43  21 E8         N/A
* ALZADA       N/A       81  49  33 E9         N/A
* HYSHAM       N/A       86  46  25 E9G17      N/A
* LAME DEER    N/A       82  45  27 NE11G16    N/A
* REED POINT   N/A       85  53  33 N/A        N/A
* ROSCOE HILL  N/A       77  44  31 NW1        N/A
$$

REGIONAL REPORTS...DAKOTAS
CITY           SKY/WX    TMP DP  RH WIND       PRES   REMARKS
WILLISTON      CLEAR     81  48  32 SE7       30.20F
DICKINSON      CLEAR     73  55  53 E7        30.23F
CROSBY         CLEAR     72  61  68 E6        30.22F
TIOGA          PTCLDY    72  57  59 E3        30.26F
WATFORD CITY   CLEAR     75  55  50 SE7       30.20F
BISMARCK       CLEAR     73  52  48 E8        30.23F
GRAND FORKS    FAIR      72  57  59 N5        30.18F
FARGO          CLEAR     72  54  53 W7        30.18F
BUFFALO SD     PTCLDY    75  52  45 E13       30.18F
RAPID CITY     CLEAR     73  57  57 SE7       30.23F
$$

REGIONAL REPORTS...WYOMING/IDAHO/WASHINGTON
CITY           SKY/WX    TMP DP  RH WIND       PRES   REMARKS
GILLETTE       CLEAR     82  50  33 E17       30.21S
SHERIDAN       PTCLDY    84  46  26 NE7       30.18S
YELLOWSTONE LA CLOUDY    66  39  37 NW3       30.49F
SALMON         CLOUDY    82  52  35 S12       30.11S
MULLAN PASS    PTCLDY    79  37  22 CALM      30.32S
SAND POINT     PTCLDY    91  45  20 CALM      30.04S
SPOKANE        PTCLDY    97  36  12 W7        30.03F
$$

REGIONAL REPORTS...ALBERTA
CITY           SKY/WX    TMP DP  RH WIND       PRES   REMARKS
CALGARY        FAIR      82  50  33 SE9       30.17F
LETHBRIDGE     PTCLDY    82  59  46 E9        30.15F HI  82
MEDICINE HAT   MOCLDY    90  43  19 E8        30.13F
EDMONTON       FAIR      79  63  58 SE10      30.14S
WATERTON GATE  N/A       81  46  29 N6         N/A
CARDSTON       N/A       82  54  38 NE7        N/A
MILK RIVER     N/A       84  45  26 E15        N/A
$$

REGIONAL REPORTS...SASKATCHEWAN
CITY           SKY/WX    TMP DP  RH WIND       PRES   REMARKS
SWIFT CURRENT  FAIR      77  52  42 E12       30.22S
REGINA         PTCLDY    75  59  58 NW6       30.22S
VAL MARIE      N/A       77  55  47 E9         N/A
ASSINIBOIA     N/A       75  55  50 NE6        N/A
CORONACH       N/A       77  48  36 N8         N/A

$$



USA.gov is the U.S. government's official web portal to all federal, state and local government web resources and services.